Regional Weather Roundup
Issued by NWS Bismarck, ND

Home | Current Version | Previous Version | Text Only | Print | Product List | Glossary On
Versions: 1 2 3 4 5 6 7 8 9 10 11 12 13 14 15 16 17 18 19 20 21 22 23 24 25 26 27 28 29 30 31 32 33 34 35 36 37 38 39 40 41 42 43 44 45 46 47 48 49 50
000
ASUS43 KBIS 250559
RWRBIS

NWR BROADCAST TEXT
NATIONAL WEATHER SERVICE BISMARCK ND
100 AM CDT SAT OCT 25 2014

NOTE: "FAIR" INDICATES FEW OR NO CLOUDS BELOW 12,000 FEET WITH NO
SIGNIFICANT WEATHER AND/OR OBSTRUCTIONS TO VISIBILITY.


CITY           SKY/WX    TMP DP  RH WIND       PRES   REMARKS
WILLISTON      MOCLDY    44  26  49 W6        30.06S
MINOT          CLEAR     44  29  55 W7        30.03R
MINOT AFB      NOT AVBL
BISMARCK       MOCLDY    48  30  49 W9        30.07R
DICKINSON      NOT AVBL
GARRISON         N/A     46  30  53 W10       30.04R
HETTINGER ARPT CLOUDY    48  32  53 CALM      30.12R
JAMESTOWN      NOT AVBL
CARRINGTON     FAIR      41  32  70 W13       30.01S
$$

CITY           SKY/WX    TMP DP  RH WIND       PRES   REMARKS
GRAND FORKS    CLEAR     47  35  63 W8        29.92R
GRAND FORKS AF NOT AVBL
DEVILS LAKE    CLEAR     46  30  53 W14       29.95R
FARGO          PTCLDY    46  31  55 W9        29.97R
GWINNER        CLOUDY    55  34  44 NW15G21   30.01S
$$

CITY           SKY/WX    TMP DP  RH WIND       PRES   REMARKS
ABERDEEN       MOCLDY    57  37  47 NW10      30.05R
MOBRIDGE       CLOUDY    55  38  52 CALM      30.05F
RAPID CITY     CLEAR     45  33  63 NW10      30.14R
GLASGOW        MOCLDY    45  29  53 CALM      30.08R
SIDNEY         CLOUDY    45  32  61 CALM      30.10S
WOLF POINT     MOCLDY    41  30  65 W3        30.09R
GLENDIVE       CLOUDY    45  30  57 NW7       30.12R
MILES CITY     MOCLDY    48  33  56 N3        30.10F
BAKER          CLOUDY    42  33  70 CALM      30.13R
$$

CITY           SKY/WX    TMP DP  RH WIND       PRES   REMARKS
BILLINGS       CLEAR     47  35  63 N5        30.10S
GREAT FALLS    CLOUDY    47  40  76 SE5       30.06F
$$




USA.gov is the U.S. government's official web portal to all federal, state and local government web resources and services.